Home   Weather   Randaberg   Past weeks

Flag for Norway Past Weather in Randaberg, Norway — Yesterday and Last 2 Weeks

Now
40 °F

Passing clouds.


Feels Like: 34 °F
Forecast: 36 / 39 °F
Wind: 9 mph from Northwest

Location: Stavanger / Sola

Current Time: Apr 23, 2017 at 12:17:37 pm

Latest Report: Apr 23, 2017 at 11:00 am


Visibility: 18 mi

Pressure: 30.06 "Hg

Humidity: 65%

Dew Point: 29 °F

Location of RandabergLocation

Past Weather in Randaberg — Graph

°F

Randaberg Temperature Yesterday

Maximum temperature yesterday: 46 °F (at 12:00 pm)
Minimum temperature yesterday: 37 °F (at 11:00 pm)
Average temperature yesterday: 41 °F

High & Low Weather Summary for the Past Weeks

 TemperatureHumidityPressure
High53 °F (Apr 9, 5:00 pm)100% (Apr 20, 6:00 pm)30.61 "Hg (Apr 20, 6:00 pm)
Low29 °F (Apr 17, 6:00 am)44% (Apr 18, 10:00 am)29.50 "Hg (Apr 12, 3:00 pm)
Average41 °F81%29.98 "Hg
* Reported Apr 8 10:00 am — Apr 23 10:00 am, Randaberg, Weather by CustomWeather, © 2017

Note: Actual official high and low records may vary slightly from our data, if they occured in-between our weather recording intervals... More about our weather records

Advertising

Randaberg Weather History for the Previous 24 Hours

Scroll right to see more
 ConditionsComfort  
Time TempWeatherWind HumidityBarometerVisibility
10:00 am
Sun, Apr 23
39 °FSunny.5 mph78%30.07 "Hg17 mi
9:00 am33 °FSprinkles. Partly sunny.7 mph87%30.08 "Hg7 mi
8:00 am34 °FSnow flurries. Scattered clouds.5 mph92%30.07 "Hg18 mi
7:00 am33 °FPassing clouds.2 mph91%30.07 "Hg25 mi
6:00 am34 °FPassing clouds.5 mph84%30.06 "Hg25 mi
5:00 am34 °FOvercast.3 mph85%30.06 "Hg25 mi
4:00 am34 °FPassing clouds.7 mph84%30.07 "Hg28 mi
3:00 am35 °FPassing clouds.6 mph80%30.07 "Hg19 mi
2:00 am35 °FFog.9 mph78%30.07 "Hg10 mi
1:00 am38 °FPassing clouds.10 mph71%30.07 "Hg15 mi
12:00 am36 °FPassing clouds.10 mph77%30.08 "Hg13 mi
11:00 pm
Sat, Apr 22
37 °FRain showers. Passing clouds.6 mph88%30.08 "Hg5 mi
10:00 pm39 °FRain showers. Passing clouds.9 mph81%30.07 "Hg12 mi
9:00 pm38 °FRain showers. Partly sunny.8 mph85%30.07 "Hg4 mi
8:00 pm39 °FPassing clouds.8 mph86%30.07 "Hg22 mi
7:00 pm41 °FScattered clouds.9 mph77%30.07 "Hg22 mi
6:00 pm41 °FSprinkles. Passing clouds.9 mph76%30.07 "Hg11 mi
5:00 pm44 °FPartly sunny.9 mph67%30.07 "Hg16 mi
4:00 pm41 °FPassing clouds.10 mph73%30.07 "Hg14 mi
3:00 pm43 °FSunny.12 mph73%30.07 "Hg11 mi
2:00 pm44 °FPassing clouds.12 mph77%30.07 "Hg8 mi
1:00 pm45 °FScattered clouds.7 mph64%30.07 "Hg14 mi
12:00 pm46 °FSunny.10 mph58%30.06 "Hg11 mi
Weather by CustomWeather, © 2017

See weather overviewHow to use our weather pages